Time,TemperatureF,DewpointF,PressureIn,WindDirection,WindDirectionDegrees,WindSpeedMPH,WindSpeedGustMPH,Humidity,HourlyPrecipIn,Conditions,Clouds,dailyrainin,SoftwareType,DateUTC
2013-08-27 00:01:00,61.5,52.8,29.85,West,259,0.0,0.0,73,0.00,,SKC,0.00,VWS V14.01,2013-08-27 07:01:00,
2013-08-27 00:10:00,61.2,52.5,29.85,West,259,0.0,0.0,73,0.00,,SKC,0.00,VWS V14.01,2013-08-27 07:10:00,
2013-08-27 00:20:00,60.8,51.7,29.85,West,259,0.0,0.0,72,0.00,,SKC,0.00,VWS V14.01,2013-08-27 07:20:00,
2013-08-27 00:25:00,60.6,51.9,29.85,West,259,0.0,0.0,73,0.00,,SKC,0.00,VWS V14.01,2013-08-27 07:25:00,
2013-08-27 00:30:00,60.4,51.7,29.85,West,259,0.0,0.0,73,0.00,,SKC,0.00,VWS V14.01,2013-08-27 07:30:00,
2013-08-27 00:35:00,60.2,51.5,29.85,West,259,0.0,0.0,73,0.00,,SKC,0.00,VWS V14.01,2013-08-27 07:35:00,
2013-08-27 00:40:00,59.9,51.2,29.85,West,259,0.0,0.0,73,0.00,,SKC,0.00,VWS V14.01,2013-08-27 07:40:00,
2013-08-27 00:45:00,59.8,51.5,29.85,West,259,0.0,0.0,74,0.00,,SKC,0.00,VWS V14.01,2013-08-27 07:45:00,
2013-08-27 00:50:00,59.7,51.8,29.85,West,259,0.0,0.0,75,0.00,,SKC,0.00,VWS V14.01,2013-08-27 07:50:00,
2013-08-27 00:55:00,59.6,51.7,29.86,West,259,0.0,0.0,75,0.00,,SKC,0.00,VWS V14.01,2013-08-27 07:55:00,
2013-08-27 01:00:00,59.5,51.9,29.86,West,259,0.0,0.0,76,0.00,,SKC,0.00,VWS V14.01,2013-08-27 08:00:00,
2013-08-27 01:15:00,59.0,52.5,29.85,West,259,0.0,0.0,79,0.00,,SKC,0.00,VWS V14.01,2013-08-27 08:15:00,
2013-08-27 01:20:00,59.0,52.5,29.85,West,259,0.0,0.0,79,0.00,,SKC,0.00,VWS V14.01,2013-08-27 08:20:00,
2013-08-27 01:25:00,59.0,52.5,29.85,West,259,0.0,0.0,79,0.00,,SKC,0.00,VWS V14.01,2013-08-27 08:25:00,
2013-08-27 01:30:00,59.0,52.8,29.85,West,259,0.0,0.0,80,0.00,,SKC,0.00,VWS V14.01,2013-08-27 08:30:00,
2013-08-27 01:35:00,58.9,52.8,29.84,West,259,0.0,1.0,80,0.00,,SKC,0.00,VWS V14.01,2013-08-27 08:35:00,
2013-08-27 01:40:00,58.6,52.5,29.84,West,259,0.0,0.0,80,0.00,,SKC,0.00,VWS V14.01,2013-08-27 08:40:00,
2013-08-27 01:45:00,58.4,52.6,29.85,West,259,0.0,0.0,81,0.00,,SKC,0.00,VWS V14.01,2013-08-27 08:45:00,
2013-08-27 01:50:00,58.3,52.5,29.84,West,259,0.0,0.0,81,0.00,,SKC,0.00,VWS V14.01,2013-08-27 08:50:00,
2013-08-27 01:55:00,58.2,52.4,29.84,West,259,0.0,0.0,81,0.00,,SKC,0.00,VWS V14.01,2013-08-27 08:55:00,
2013-08-27 02:00:00,58.0,52.2,29.84,West,259,0.0,0.0,81,0.00,,SKC,0.00,VWS V14.01,2013-08-27 09:00:00,
2013-08-27 02:05:00,57.9,52.5,29.84,West,259,0.0,0.0,82,0.00,,SKC,0.00,VWS V14.01,2013-08-27 09:05:00,
2013-08-27 02:10:00,57.7,51.9,29.84,West,259,0.0,0.0,81,0.00,,SKC,0.00,VWS V14.01,2013-08-27 09:10:00,
2013-08-27 02:15:00,57.5,51.7,29.84,West,259,0.0,0.0,81,0.00,,SKC,0.00,VWS V14.01,2013-08-27 09:15:00,
2013-08-27 02:20:00,57.4,52.0,29.84,West,259,0.0,0.0,82,0.00,,SKC,0.00,VWS V14.01,2013-08-27 09:20:00,
2013-08-27 02:25:00,57.3,52.2,29.84,West,259,0.0,0.0,83,0.00,,SKC,0.00,VWS V14.01,2013-08-27 09:25:00,
2013-08-27 02:30:00,57.2,51.8,29.84,West,259,0.0,0.0,82,0.00,,SKC,0.00,VWS V14.01,2013-08-27 09:30:00,
2013-08-27 02:35:00,57.0,51.6,29.84,West,259,0.0,0.0,82,0.00,,SKC,0.00,VWS V14.01,2013-08-27 09:35:00,
2013-08-27 02:40:00,56.8,51.4,29.84,West,259,0.0,0.0,82,0.00,,SKC,0.00,VWS V14.01,2013-08-27 09:40:00,
2013-08-27 02:45:00,56.7,51.6,29.84,West,259,0.0,0.0,83,0.00,,SKC,0.00,VWS V14.01,2013-08-27 09:45:00,
2013-08-27 02:50:00,56.6,51.5,29.84,West,259,0.0,0.0,83,0.00,,SKC,0.00,VWS V14.01,2013-08-27 09:50:00,
2013-08-27 02:55:00,56.5,51.7,29.84,West,259,0.0,0.0,84,0.00,,SKC,0.00,VWS V14.01,2013-08-27 09:55:00,
2013-08-27 03:00:00,56.4,51.6,29.84,West,259,0.0,0.0,84,0.00,,SKC,0.00,VWS V14.01,2013-08-27 10:00:00,
2013-08-27 03:05:00,56.2,51.4,29.84,West,259,0.0,0.0,84,0.00,,SKC,0.00,VWS V14.01,2013-08-27 10:05:00,
2013-08-27 03:10:00,56.1,51.7,29.84,West,259,0.0,0.0,85,0.00,,SKC,0.00,VWS V14.01,2013-08-27 10:10:00,
2013-08-27 03:15:00,56.0,51.6,29.84,West,259,0.0,0.0,85,0.00,,SKC,0.00,VWS V14.01,2013-08-27 10:15:00,
2013-08-27 03:20:00,55.8,51.0,29.83,West,259,0.0,0.0,84,0.00,,SKC,0.00,VWS V14.01,2013-08-27 10:20:00,
2013-08-27 03:25:00,55.7,51.3,29.83,West,259,0.0,0.0,85,0.00,,SKC,0.00,VWS V14.01,2013-08-27 10:25:00,
2013-08-27 03:30:00,55.7,51.3,29.83,West,259,0.0,0.0,85,0.00,,SKC,0.00,VWS V14.01,2013-08-27 10:30:00,
2013-08-27 03:35:00,55.6,51.5,29.83,West,259,0.0,0.0,86,0.00,,SKC,0.00,VWS V14.01,2013-08-27 10:35:00,
2013-08-27 03:40:00,55.6,51.5,29.83,West,259,0.0,0.0,86,0.00,,SKC,0.00,VWS V14.01,2013-08-27 10:40:00,
2013-08-27 03:45:00,55.5,51.4,29.83,West,259,0.0,0.0,86,0.00,,SKC,0.00,VWS V14.01,2013-08-27 10:45:00,
2013-08-27 03:50:00,55.5,51.4,29.83,West,259,0.0,0.0,86,0.00,,SKC,0.00,VWS V14.01,2013-08-27 10:50:00,
2013-08-27 03:55:00,55.4,51.6,29.84,West,259,0.0,0.0,87,0.00,,SKC,0.00,VWS V14.01,2013-08-27 10:55:00,
2013-08-27 04:00:00,55.4,51.3,29.83,West,259,0.0,0.0,86,0.00,,SKC,0.00,VWS V14.01,2013-08-27 11:00:00,
2013-08-27 04:05:00,55.3,51.5,29.84,West,259,0.0,0.0,87,0.00,,SKC,0.00,VWS V14.01,2013-08-27 11:05:00,
2013-08-27 04:10:00,55.2,51.4,29.83,West,259,0.0,0.0,87,0.00,,SKC,0.00,VWS V14.01,2013-08-27 11:10:00,
2013-08-27 04:15:00,55.1,51.0,29.83,West,259,0.0,0.0,86,0.00,,SKC,0.00,VWS V14.01,2013-08-27 11:15:00,
2013-08-27 04:20:00,55.1,51.0,29.83,West,259,0.0,0.0,86,0.00,,SKC,0.00,VWS V14.01,2013-08-27 11:20:00,
2013-08-27 04:25:00,55.0,50.9,29.84,West,259,0.0,0.0,86,0.00,,SKC,0.00,VWS V14.01,2013-08-27 11:25:00,
2013-08-27 04:30:00,54.8,50.7,29.83,West,259,0.0,0.0,86,0.00,,SKC,0.00,VWS V14.01,2013-08-27 11:30:00,
2013-08-27 04:40:00,54.6,50.5,29.83,West,259,0.0,0.0,86,0.00,,SKC,0.00,VWS V14.01,2013-08-27 11:40:00,
2013-08-27 04:45:00,54.5,50.4,29.83,West,259,0.0,0.0,86,0.00,,SKC,0.00,VWS V14.01,2013-08-27 11:45:00,
2013-08-27 04:50:00,54.3,50.2,29.83,West,259,0.0,0.0,86,0.00,,SKC,0.00,VWS V14.01,2013-08-27 11:50:00,
2013-08-27 04:55:00,54.2,50.1,29.83,West,259,0.0,0.0,86,0.00,,SKC,0.00,VWS V14.01,2013-08-27 11:55:00,
2013-08-27 05:00:00,54.2,50.4,29.83,West,259,0.0,0.0,87,0.00,,SKC,0.00,VWS V14.01,2013-08-27 12:00:00,
2013-08-27 05:05:00,54.3,50.5,29.83,West,259,0.0,0.0,87,0.00,,SKC,0.00,VWS V14.01,2013-08-27 12:05:00,
2013-08-27 05:10:00,54.3,50.5,29.83,West,259,0.0,2.0,87,0.00,,SKC,0.00,VWS V14.01,2013-08-27 12:10:00,
2013-08-27 05:15:00,54.2,50.1,29.83,West,259,0.0,0.0,86,0.00,,SKC,0.00,VWS V14.01,2013-08-27 12:15:00,
2013-08-27 05:20:00,54.2,50.4,29.83,West,259,0.0,0.0,87,0.00,,SKC,0.00,VWS V14.01,2013-08-27 12:20:00,
2013-08-27 05:25:00,54.2,50.4,29.83,West,259,0.0,0.0,87,0.00,,SKC,0.00,VWS V14.01,2013-08-27 12:25:00,
2013-08-27 05:30:00,54.2,50.4,29.83,West,259,0.0,0.0,87,0.00,,SKC,0.00,VWS V14.01,2013-08-27 12:30:00,
2013-08-27 05:35:00,54.2,50.4,29.83,West,259,0.0,0.0,87,0.00,,SKC,0.00,VWS V14.01,2013-08-27 12:35:00,
2013-08-27 05:40:00,54.2,50.4,29.84,West,259,0.0,0.0,87,0.00,,SKC,0.00,VWS V14.01,2013-08-27 12:40:00,
2013-08-27 05:45:00,54.2,50.4,29.83,West,259,0.0,0.0,87,0.00,,SKC,0.00,VWS V14.01,2013-08-27 12:45:00,
2013-08-27 05:50:00,54.3,50.5,29.83,West,259,0.0,0.0,87,0.00,,SKC,0.00,VWS V14.01,2013-08-27 12:50:00,
2013-08-27 05:55:00,54.3,50.5,29.84,West,259,0.0,0.0,87,0.00,,SKC,0.00,VWS V14.01,2013-08-27 12:55:00,
2013-08-27 06:00:00,54.4,50.6,29.84,West,259,0.0,0.0,87,0.00,,SKC,0.00,VWS V14.01,2013-08-27 13:00:00,
2013-08-27 06:05:00,54.6,50.8,29.84,West,259,0.0,0.0,87,0.00,,SKC,0.00,VWS V14.01,2013-08-27 13:05:00,
2013-08-27 06:10:00,54.6,50.8,29.84,West,259,0.0,0.0,87,0.00,,SKC,0.00,VWS V14.01,2013-08-27 13:10:00,
2013-08-27 06:15:00,54.6,50.8,29.83,West,259,0.0,1.0,87,0.00,,SKC,0.00,VWS V14.01,2013-08-27 13:15:00,
2013-08-27 06:20:00,54.8,51.0,29.84,West,259,0.0,0.0,87,0.00,,SKC,0.00,VWS V14.01,2013-08-27 13:20:00,
2013-08-27 06:25:00,54.9,51.1,29.84,West,259,0.0,0.0,87,0.00,,SKC,0.00,VWS V14.01,2013-08-27 13:25:00,
2013-08-27 06:30:00,55.0,50.9,29.84,West,259,0.0,0.0,86,0.00,,SKC,0.00,VWS V14.01,2013-08-27 13:30:00,
2013-08-27 06:35:00,55.0,50.9,29.84,West,259,0.0,0.0,86,0.00,,SKC,0.00,VWS V14.01,2013-08-27 13:35:00,
2013-08-27 06:40:00,55.0,50.9,29.84,West,259,0.0,0.0,86,0.00,,SKC,0.00,VWS V14.01,2013-08-27 13:40:00,
2013-08-27 06:45:00,55.1,50.7,29.84,West,259,0.0,0.0,85,0.00,,SKC,0.00,VWS V14.01,2013-08-27 13:45:00,
2013-08-27 06:50:00,55.2,50.8,29.84,West,259,0.0,0.0,85,0.00,,SKC,0.00,VWS V14.01,2013-08-27 13:50:00,
2013-08-27 06:55:00,55.4,51.3,29.84,West,259,0.0,0.0,86,0.00,,SKC,0.00,VWS V14.01,2013-08-27 13:55:00,
2013-08-27 07:00:00,55.6,51.2,29.84,West,259,0.0,0.0,85,0.00,,SKC,0.00,VWS V14.01,2013-08-27 14:00:00,
2013-08-27 07:05:00,55.8,51.4,29.84,West,259,0.0,0.0,85,0.00,,SKC,0.00,VWS V14.01,2013-08-27 14:05:00,
2013-08-27 07:10:00,56.0,51.2,29.84,West,259,0.0,0.0,84,0.00,,SKC,0.00,VWS V14.01,2013-08-27 14:10:00,
2013-08-27 07:15:00,56.2,51.8,29.84,West,259,0.0,0.0,85,0.00,,SKC,0.00,VWS V14.01,2013-08-27 14:15:00,
2013-08-27 07:20:00,56.3,51.2,29.84,West,259,0.0,0.0,83,0.00,,SKC,0.00,VWS V14.01,2013-08-27 14:20:00,
2013-08-27 07:25:00,56.4,51.3,29.84,West,259,0.0,0.0,83,0.00,,SKC,0.00,VWS V14.01,2013-08-27 14:25:00,
2013-08-27 07:30:00,56.5,51.4,29.84,West,259,0.0,0.0,83,0.00,,SKC,0.00,VWS V14.01,2013-08-27 14:30:00,
2013-08-27 07:35:00,56.7,51.6,29.84,West,259,0.0,0.0,83,0.00,,SKC,0.00,VWS V14.01,2013-08-27 14:35:00,
2013-08-27 07:40:00,56.9,52.1,29.84,West,259,0.0,0.0,84,0.00,,SKC,0.00,VWS V14.01,2013-08-27 14:40:00,
2013-08-27 07:45:00,57.2,52.1,29.85,West,259,0.0,0.0,83,0.00,,SKC,0.00,VWS V14.01,2013-08-27 14:45:00,
2013-08-27 07:50:00,57.5,52.4,29.85,West,259,0.0,0.0,83,0.00,,SKC,0.00,VWS V14.01,2013-08-27 14:50:00,
2013-08-27 07:55:00,58.0,52.5,29.84,West,259,0.0,2.0,82,0.00,,SKC,0.00,VWS V14.01,2013-08-27 14:55:00,
2013-08-27 08:00:00,58.4,52.6,29.84,West,259,0.0,0.0,81,0.00,,SKC,0.00,VWS V14.01,2013-08-27 15:00:00,
2013-08-27 08:05:00,59.0,53.8,29.84,West,259,0.0,2.0,83,0.00,,SKC,0.00,VWS V14.01,2013-08-27 15:05:00,
2013-08-27 08:10:00,59.4,53.2,29.84,West,259,0.0,1.0,80,0.00,,SKC,0.00,VWS V14.01,2013-08-27 15:10:00,
2013-08-27 08:15:00,60.0,53.5,29.84,West,259,0.0,0.0,79,0.00,,SKC,0.00,VWS V14.01,2013-08-27 15:15:00,
2013-08-27 08:20:00,60.7,53.5,29.84,West,259,2.0,5.0,77,0.00,,SKC,0.00,VWS V14.01,2013-08-27 15:20:00,
2013-08-27 08:25:00,61.3,53.7,29.84,West,259,0.0,2.0,76,0.00,,SKC,0.00,VWS V14.01,2013-08-27 15:25:00,
2013-08-27 08:30:00,61.8,53.8,29.84,West,259,0.0,2.0,75,0.00,,SKC,0.00,VWS V14.01,2013-08-27 15:30:00,
2013-08-27 08:35:00,62.4,53.6,29.84,West,259,0.0,4.0,73,0.00,,SKC,0.00,VWS V14.01,2013-08-27 15:35:00,
2013-08-27 08:40:00,63.0,53.8,29.84,West,259,1.0,4.0,72,0.00,,SKC,0.00,VWS V14.01,2013-08-27 15:40:00,
2013-08-27 08:45:00,63.5,53.5,29.84,West,259,2.0,2.0,70,0.00,,SKC,0.00,VWS V14.01,2013-08-27 15:45:00,
2013-08-27 08:50:00,64.2,53.8,29.84,West,259,1.0,2.0,69,0.00,,SKC,0.00,VWS V14.01,2013-08-27 15:50:00,
2013-08-27 08:55:00,65.0,53.8,29.84,West,259,0.0,4.0,67,0.00,,SKC,0.00,VWS V14.01,2013-08-27 15:55:00,
2013-08-27 09:00:00,65.6,54.0,29.84,West,259,1.0,5.0,66,0.00,,SKC,0.00,VWS V14.01,2013-08-27 16:00:00,
2013-08-27 09:05:00,66.3,54.2,29.84,West,259,0.0,4.0,65,0.00,,SKC,0.00,VWS V14.01,2013-08-27 16:05:00,
2013-08-27 09:10:00,67.0,54.4,29.84,West,259,0.0,2.0,64,0.00,,SKC,0.00,VWS V14.01,2013-08-27 16:10:00,
2013-08-27 09:15:00,67.5,54.5,29.84,West,259,0.0,5.0,63,0.00,,SKC,0.00,VWS V14.01,2013-08-27 16:15:00,
2013-08-27 09:20:00,67.7,54.7,29.84,West,259,0.0,4.0,63,0.00,,SKC,0.00,VWS V14.01,2013-08-27 16:20:00,
2013-08-27 09:25:00,68.1,55.0,29.84,West,259,0.0,4.0,63,0.00,,SKC,0.00,VWS V14.01,2013-08-27 16:25:00,
2013-08-27 09:30:00,68.5,55.4,29.84,West,259,2.0,4.0,63,0.00,,SKC,0.00,VWS V14.01,2013-08-27 16:30:00,
2013-08-27 09:35:00,68.6,55.1,29.84,West,259,0.0,3.0,62,0.00,,SKC,0.00,VWS V14.01,2013-08-27 16:35:00,
2013-08-27 09:40:00,69.0,55.0,29.84,West,259,0.0,4.0,61,0.00,,SKC,0.00,VWS V14.01,2013-08-27 16:40:00,
2013-08-27 09:45:00,69.8,54.8,29.84,NW,310,0.0,4.0,59,0.00,,SKC,0.00,VWS V14.01,2013-08-27 16:45:00,
2013-08-27 09:50:00,71.0,55.0,29.84,WNW,286,2.0,6.0,57,0.00,,SKC,0.00,VWS V14.01,2013-08-27 16:50:00,
2013-08-27 09:55:00,72.5,55.9,29.84,West,265,0.0,6.0,56,0.00,,SKC,0.00,VWS V14.01,2013-08-27 16:55:00,
2013-08-27 10:00:00,73.9,55.7,29.83,West,265,1.0,4.0,53,0.00,,SKC,0.00,VWS V14.01,2013-08-27 17:00:00,
2013-08-27 10:05:00,74.9,56.6,29.84,WNW,296,3.0,5.0,53,0.00,,SKC,0.00,VWS V14.01,2013-08-27 17:05:00,
2013-08-27 10:10:00,76.0,57.1,29.83,West,267,5.0,6.0,52,0.00,,SKC,0.00,VWS V14.01,2013-08-27 17:10:00,
2013-08-27 10:15:00,76.5,57.0,29.83,NW,314,0.0,7.0,51,0.00,,SKC,0.00,VWS V14.01,2013-08-27 17:15:00,
2013-08-27 10:20:00,76.4,56.4,29.84,WNW,292,4.0,4.0,50,0.00,,SKC,0.00,VWS V14.01,2013-08-27 17:20:00,
2013-08-27 10:25:00,76.6,57.1,29.84,NNW,331,5.0,6.0,51,0.00,,SKC,0.00,VWS V14.01,2013-08-27 17:25:00,
2013-08-27 10:30:00,77.1,57.0,29.84,West,269,0.0,5.0,50,0.00,,SKC,0.00,VWS V14.01,2013-08-27 17:30:00,
2013-08-27 10:35:00,77.6,57.0,29.84,WNW,284,1.0,5.0,49,0.00,,SKC,0.00,VWS V14.01,2013-08-27 17:35:00,
2013-08-27 10:40:00,78.5,57.8,29.84,West,260,0.0,6.0,49,0.00,,SKC,0.00,VWS V14.01,2013-08-27 17:40:00,
2013-08-27 10:45:00,78.8,57.5,29.84,SSE,167,0.0,3.0,48,0.00,,SKC,0.00,VWS V14.01,2013-08-27 17:45:00,
2013-08-27 10:50:00,78.7,57.4,29.83,West,275,1.0,5.0,48,0.00,,SKC,0.00,VWS V14.01,2013-08-27 17:50:00,
2013-08-27 10:55:00,78.5,57.8,29.83,NW,319,0.0,7.0,49,0.00,,SKC,0.00,VWS V14.01,2013-08-27 17:55:00,
2013-08-27 11:00:00,79.4,57.4,29.83,WNW,301,0.0,2.0,47,0.00,,SKC,0.00,VWS V14.01,2013-08-27 18:00:00,
2013-08-27 11:05:00,80.6,58.5,29.83,West,281,2.0,5.0,47,0.00,,SKC,0.00,VWS V14.01,2013-08-27 18:05:00,
2013-08-27 11:11:00,80.7,58.0,29.83,WNW,296,1.0,5.0,46,0.00,,SKC,0.00,VWS V14.01,2013-08-27 18:11:00,
2013-08-27 11:20:00,82.2,58.1,29.83,West,265,1.0,5.0,44,0.00,,SKC,0.00,VWS V14.01,2013-08-27 18:20:00,
2013-08-27 11:25:00,83.1,58.3,29.83,West,275,2.0,5.0,43,0.00,,SKC,0.00,VWS V14.01,2013-08-27 18:25:00,
2013-08-27 11:30:00,83.7,58.8,29.82,WNW,290,0.0,5.0,43,0.00,,SKC,0.00,VWS V14.01,2013-08-27 18:30:00,
2013-08-27 11:35:00,83.8,59.6,29.82,NW,309,0.0,7.0,44,0.00,,SKC,0.00,VWS V14.01,2013-08-27 18:35:00,
2013-08-27 11:40:00,83.4,59.2,29.82,WSW,244,0.0,6.0,44,0.00,,SKC,0.00,VWS V14.01,2013-08-27 18:40:00,
2013-08-27 11:45:00,84.2,59.3,29.82,West,265,0.0,6.0,43,0.00,,SKC,0.00,VWS V14.01,2013-08-27 18:45:00,
2013-08-27 11:50:00,85.4,59.0,29.82,West,278,7.0,7.0,41,0.00,,SKC,0.00,VWS V14.01,2013-08-27 18:50:00,
2013-08-27 11:55:00,85.0,58.0,29.82,NW,306,1.0,7.0,40,0.00,,SKC,0.00,VWS V14.01,2013-08-27 18:55:00,
2013-08-27 12:00:00,84.4,58.2,29.82,SSW,201,0.0,8.0,41,0.00,,SKC,0.00,VWS V14.01,2013-08-27 19:00:00,
2013-08-27 12:05:00,85.0,58.0,29.82,North,360,3.0,6.0,40,0.00,,SKC,0.00,VWS V14.01,2013-08-27 19:05:00,
2013-08-27 12:10:00,85.8,59.4,29.82,WNW,286,0.0,6.0,41,0.00,,SKC,0.00,VWS V14.01,2013-08-27 19:10:00,
2013-08-27 12:15:00,86.3,58.5,29.82,SW,229,0.0,1.0,39,0.00,,SKC,0.00,VWS V14.01,2013-08-27 19:15:00,
2013-08-27 12:20:00,87.2,58.5,29.81,WSW,258,0.0,5.0,38,0.00,,SKC,0.00,VWS V14.01,2013-08-27 19:20:00,
2013-08-27 12:25:00,87.5,58.8,29.81,WNW,282,3.0,5.0,38,0.00,,SKC,0.00,VWS V14.01,2013-08-27 19:25:00,
2013-08-27 12:30:00,87.3,58.6,29.81,SSE,160,0.0,4.0,38,0.00,,SKC,0.00,VWS V14.01,2013-08-27 19:30:00,
2013-08-27 12:35:00,87.3,59.3,29.81,West,268,5.0,5.0,39,0.00,,SKC,0.00,VWS V14.01,2013-08-27 19:35:00,
2013-08-27 12:41:00,88.3,59.5,29.80,WNW,301,1.0,5.0,38,0.00,,SKC,0.00,VWS V14.01,2013-08-27 19:41:00,
2013-08-27 12:50:00,89.3,59.6,29.80,WNW,287,4.0,6.0,37,0.00,,SKC,0.00,VWS V14.01,2013-08-27 19:50:00,
2013-08-27 12:55:00,89.5,59.8,29.80,WNW,298,0.0,5.0,37,0.00,,SKC,0.00,VWS V14.01,2013-08-27 19:55:00,
2013-08-27 13:00:00,89.3,59.6,29.80,West,262,5.0,8.0,37,0.00,,SKC,0.00,VWS V14.01,2013-08-27 20:00:00,
2013-08-27 13:05:00,89.4,59.7,29.80,NW,324,6.0,8.0,37,0.00,,SKC,0.00,VWS V14.01,2013-08-27 20:05:00,
2013-08-27 13:10:00,89.3,58.9,29.80,WNW,288,0.0,9.0,36,0.00,,SKC,0.00,VWS V14.01,2013-08-27 20:10:00,
2013-08-27 13:15:00,88.8,59.2,29.80,West,262,1.0,7.0,37,0.00,,SKC,0.00,VWS V14.01,2013-08-27 20:15:00,
2013-08-27 13:20:00,89.2,59.5,29.80,West,264,1.0,7.0,37,0.00,,SKC,0.00,VWS V14.01,2013-08-27 20:20:00,
2013-08-27 13:25:00,88.8,59.2,29.79,NW,326,5.0,7.0,37,0.00,,SKC,0.00,VWS V14.01,2013-08-27 20:25:00,
2013-08-27 13:31:00,88.4,58.8,29.79,WNW,285,4.0,11.0,37,0.00,,SKC,0.00,VWS V14.01,2013-08-27 20:31:00,
2013-08-27 13:40:00,88.3,59.5,29.79,NW,325,1.0,10.0,38,0.00,,SKC,0.00,VWS V14.01,2013-08-27 20:40:00,
2013-08-27 13:45:00,88.4,58.8,29.79,WNW,296,2.0,9.0,37,0.00,,SKC,0.00,VWS V14.01,2013-08-27 20:45:00,
2013-08-27 13:50:00,88.4,58.1,29.79,West,273,0.0,8.0,36,0.00,,SKC,0.00,VWS V14.01,2013-08-27 20:50:00,
2013-08-27 14:00:00,88.5,58.9,29.79,NW,319,6.0,9.0,37,0.00,,SKC,0.00,VWS V14.01,2013-08-27 21:00:00,
2013-08-27 14:05:00,88.7,59.1,29.79,WNW,290,1.0,11.0,37,0.00,,SKC,0.00,VWS V14.01,2013-08-27 21:05:00,
2013-08-27 14:10:00,89.0,58.6,29.78,NW,311,4.0,8.0,36,0.00,,SKC,0.00,VWS V14.01,2013-08-27 21:10:00,
2013-08-27 14:50:00,89.6,57.5,29.77,WSW,250,5.0,8.0,34,0.00,,SKC,0.00,VWS V14.01,2013-08-27 21:50:00,
2013-08-27 14:55:00,89.6,56.7,29.77,North,355,3.0,9.0,33,0.00,,SKC,0.00,VWS V14.01,2013-08-27 21:55:00,
2013-08-27 15:00:00,89.3,57.3,29.77,West,260,7.0,9.0,34,0.00,,SKC,0.00,VWS V14.01,2013-08-27 22:00:00,
2013-08-27 15:05:00,89.2,57.2,29.77,West,266,4.0,9.0,34,0.00,,SKC,0.00,VWS V14.01,2013-08-27 22:05:00,
2013-08-27 15:10:00,89.6,57.5,29.76,WSW,244,5.0,11.0,34,0.00,,SKC,0.00,VWS V14.01,2013-08-27 22:10:00,
2013-08-27 15:15:00,90.1,57.2,29.76,SW,222,0.0,8.0,33,0.00,,SKC,0.00,VWS V14.01,2013-08-27 22:15:00,
2013-08-27 15:20:00,90.0,57.1,29.76,WNW,288,5.0,7.0,33,0.00,,SKC,0.00,VWS V14.01,2013-08-27 22:20:00,
2013-08-27 15:25:00,90.0,57.1,29.76,SSW,198,0.0,5.0,33,0.00,,SKC,0.00,VWS V14.01,2013-08-27 22:25:00,
2013-08-27 15:31:00,89.9,56.1,29.76,South,175,0.0,7.0,32,0.00,,SKC,0.00,VWS V14.01,2013-08-27 22:31:00,
2013-08-27 15:36:00,89.7,56.0,29.76,South,175,2.0,5.0,32,0.00,,SKC,0.00,VWS V14.01,2013-08-27 22:36:00,
2013-08-27 15:46:00,89.3,55.6,29.76,SW,236,0.0,6.0,32,0.00,,SKC,0.00,VWS V14.01,2013-08-27 22:46:00,
2013-08-27 15:56:00,89.0,55.3,29.76,SSE,159,2.0,7.0,32,0.00,,SKC,0.00,VWS V14.01,2013-08-27 22:56:00,
2013-08-27 16:01:00,88.9,55.3,29.76,South,170,0.0,5.0,32,0.00,,SKC,0.00,VWS V14.01,2013-08-27 23:01:00,
2013-08-27 16:06:00,88.9,53.5,29.76,West,271,0.0,5.0,30,0.00,,SKC,0.00,VWS V14.01,2013-08-27 23:06:00,
2013-08-27 16:15:00,88.7,54.2,29.76,NNW,327,4.0,8.0,31,0.00,,SKC,0.00,VWS V14.01,2013-08-27 23:15:00,
2013-08-27 16:21:00,88.3,54.7,29.76,West,278,2.0,8.0,32,0.00,,SKC,0.00,VWS V14.01,2013-08-27 23:21:00,
2013-08-27 16:26:00,87.8,55.2,29.76,West,270,5.0,9.0,33,0.00,,SKC,0.00,VWS V14.01,2013-08-27 23:26:00,
2013-08-27 16:35:00,87.1,56.2,29.76,South,169,0.0,8.0,35,0.00,,SKC,0.00,VWS V14.01,2013-08-27 23:35:00,
2013-08-27 16:41:00,87.0,56.1,29.76,WNW,286,1.0,8.0,35,0.00,,SKC,0.00,VWS V14.01,2013-08-27 23:41:00,
2013-08-27 16:46:00,87.0,56.1,29.76,West,281,6.0,8.0,35,0.00,,SKC,0.00,VWS V14.01,2013-08-27 23:46:00,
2013-08-27 16:56:00,87.0,56.8,29.76,West,278,0.0,7.0,36,0.00,,SKC,0.00,VWS V14.01,2013-08-27 23:56:00,
2013-08-27 17:05:00,85.7,58.6,29.76,South,171,2.0,14.0,40,0.00,,SKC,0.00,VWS V14.01,2013-08-28 00:05:00,
2013-08-27 17:10:00,85.6,57.8,29.76,West,275,5.0,6.0,39,0.00,,SKC,0.00,VWS V14.01,2013-08-28 00:10:00,
2013-08-27 17:15:00,85.3,59.0,29.76,SW,225,2.0,10.0,41,0.00,,SKC,0.00,VWS V14.01,2013-08-28 00:15:00,
2013-08-27 17:21:00,85.0,58.0,29.76,WSW,242,5.0,6.0,40,0.00,,SKC,0.00,VWS V14.01,2013-08-28 00:21:00,
2013-08-27 17:26:00,84.8,57.8,29.76,SSW,209,4.0,11.0,40,0.00,,SKC,0.00,VWS V14.01,2013-08-28 00:26:00,
2013-08-27 17:35:00,84.4,58.2,29.76,West,280,3.0,12.0,41,0.00,,SKC,0.00,VWS V14.01,2013-08-28 00:35:00,
2013-08-27 17:40:00,84.1,58.5,29.76,West,276,1.0,11.0,42,0.00,,SKC,0.00,VWS V14.01,2013-08-28 00:40:00,
2013-08-27 17:46:00,84.0,58.5,29.76,SSE,167,1.0,10.0,42,0.00,,SKC,0.00,VWS V14.01,2013-08-28 00:46:00,
2013-08-27 17:55:00,83.4,58.6,29.76,SW,230,0.0,7.0,43,0.00,,SKC,0.00,VWS V14.01,2013-08-28 00:55:00,
2013-08-27 18:01:00,83.4,59.2,29.76,West,280,6.0,8.0,44,0.00,,SKC,0.00,VWS V14.01,2013-08-28 01:01:00,
2013-08-27 18:06:00,82.6,59.1,29.76,West,275,13.0,13.0,45,0.00,,SKC,0.00,VWS V14.01,2013-08-28 01:06:00,
2013-08-27 18:16:00,82.2,58.1,29.76,WNW,302,2.0,5.0,44,0.00,,SKC,0.00,VWS V14.01,2013-08-28 01:16:00,
2013-08-27 18:25:00,81.7,57.0,29.76,North,355,0.0,8.0,43,0.00,,SKC,0.00,VWS V14.01,2013-08-28 01:25:00,
2013-08-27 18:31:00,81.2,57.2,29.76,WNW,288,5.0,10.0,44,0.00,,SKC,0.00,VWS V14.01,2013-08-28 01:31:00,
2013-08-27 18:36:00,80.7,57.4,29.76,SSW,213,1.0,6.0,45,0.00,,SKC,0.00,VWS V14.01,2013-08-28 01:36:00,
2013-08-27 18:46:00,80.0,57.4,29.76,West,264,2.0,7.0,46,0.00,,SKC,0.00,VWS V14.01,2013-08-28 01:46:00,
2013-08-27 18:56:00,78.7,57.4,29.77,West,279,2.0,8.0,48,0.00,,SKC,0.00,VWS V14.01,2013-08-28 01:56:00,
2013-08-27 19:05:00,77.9,57.2,29.77,South,173,0.0,4.0,49,0.00,,SKC,0.00,VWS V14.01,2013-08-28 02:05:00,
2013-08-27 19:10:00,77.5,56.3,29.77,WNW,294,0.0,6.0,48,0.00,,SKC,0.00,VWS V14.01,2013-08-28 02:10:00,
2013-08-27 19:15:00,77.0,56.4,29.77,WSW,254,0.0,2.0,49,0.00,,SKC,0.00,VWS V14.01,2013-08-28 02:15:00,
2013-08-27 19:25:00,76.1,57.2,29.77,South,190,0.0,5.0,52,0.00,,SKC,0.00,VWS V14.01,2013-08-28 02:25:00,
2013-08-27 19:31:00,75.6,56.8,29.78,WSW,237,0.0,5.0,52,0.00,,SKC,0.00,VWS V14.01,2013-08-28 02:31:00,
2013-08-27 19:51:00,73.5,56.4,29.78,WSW,256,0.0,7.0,55,0.00,,SKC,0.00,VWS V14.01,2013-08-28 02:51:00,
2013-08-27 19:56:00,73.1,56.0,29.78,WSW,256,0.0,1.0,55,0.00,,SKC,0.00,VWS V14.01,2013-08-28 02:56:00,
2013-08-27 20:06:00,72.2,56.1,29.78,West,281,0.0,5.0,57,0.00,,SKC,0.00,VWS V14.01,2013-08-28 03:06:00,
2013-08-27 20:16:00,71.4,56.3,29.79,SW,224,0.0,5.0,59,0.00,,SKC,0.00,VWS V14.01,2013-08-28 03:16:00,
2013-08-27 20:21:00,71.0,56.4,29.79,WSW,240,2.0,6.0,60,0.00,,SKC,0.00,VWS V14.01,2013-08-28 03:21:00,
2013-08-27 20:30:00,70.2,56.6,29.79,West,271,0.0,9.0,62,0.00,,SKC,0.00,VWS V14.01,2013-08-28 03:30:00,
2013-08-27 20:35:00,70.0,56.4,29.80,West,279,0.0,4.0,62,0.00,,SKC,0.00,VWS V14.01,2013-08-28 03:35:00,
2013-08-27 20:41:00,69.7,56.6,29.80,West,281,0.0,4.0,63,0.00,,SKC,0.00,VWS V14.01,2013-08-28 03:41:00,
2013-08-27 20:51:00,69.3,57.0,29.80,South,180,0.0,2.0,65,0.00,,SKC,0.00,VWS V14.01,2013-08-28 03:51:00,
2013-08-27 21:01:00,68.7,57.3,29.80,South,180,0.0,2.0,67,0.00,,SKC,0.00,VWS V14.01,2013-08-28 04:01:00,
2013-08-27 21:10:00,68.3,57.3,29.80,South,178,0.0,2.0,68,0.00,,SKC,0.00,VWS V14.01,2013-08-28 04:10:00,
2013-08-27 21:16:00,68.2,57.2,29.80,South,178,0.0,2.0,68,0.00,,SKC,0.00,VWS V14.01,2013-08-28 04:16:00,
2013-08-27 21:20:00,68.1,57.2,29.80,West,281,0.0,3.0,68,0.00,,SKC,0.00,VWS V14.01,2013-08-28 04:20:00,
2013-08-27 21:26:00,68.1,57.2,29.80,South,177,0.0,3.0,68,0.00,,SKC,0.00,VWS V14.01,2013-08-28 04:26:00,
2013-08-27 21:31:00,68.1,57.2,29.80,South,177,0.0,3.0,68,0.00,,SKC,0.00,VWS V14.01,2013-08-28 04:31:00,
2013-08-27 21:36:00,68.1,57.2,29.81,South,177,0.0,4.0,68,0.00,,SKC,0.00,VWS V14.01,2013-08-28 04:36:00,
2013-08-27 21:41:00,68.1,56.7,29.81,South,176,0.0,0.0,67,0.00,,SKC,0.00,VWS V14.01,2013-08-28 04:41:00,
2013-08-27 21:46:00,68.1,56.7,29.81,South,176,0.0,2.0,67,0.00,,SKC,0.00,VWS V14.01,2013-08-28 04:46:00,
2013-08-27 21:51:00,68.1,57.2,29.81,SSE,168,0.0,2.0,68,0.00,,SKC,0.00,VWS V14.01,2013-08-28 04:51:00,
2013-08-27 21:56:00,68.1,56.7,29.81,South,173,2.0,5.0,67,0.00,,SKC,0.00,VWS V14.01,2013-08-28 04:56:00,
2013-08-27 22:06:00,68.1,56.7,29.80,South,173,0.0,2.0,67,0.00,,SKC,0.00,VWS V14.01,2013-08-28 05:06:00,
2013-08-27 22:16:00,67.9,56.5,29.80,South,173,2.0,2.0,67,0.00,,SKC,0.00,VWS V14.01,2013-08-28 05:16:00,
2013-08-27 22:21:00,67.9,56.5,29.80,WNW,300,0.0,2.0,67,0.00,,SKC,0.00,VWS V14.01,2013-08-28 05:21:00,
2013-08-27 22:31:00,67.8,56.5,29.80,SSW,207,0.0,4.0,67,0.00,,SKC,0.00,VWS V14.01,2013-08-28 05:31:00,
2013-08-27 22:36:00,67.8,56.0,29.80,South,185,0.0,4.0,66,0.00,,SKC,0.00,VWS V14.01,2013-08-28 05:36:00,
2013-08-27 22:45:00,67.9,56.1,29.80,SSW,200,0.0,2.0,66,0.00,,SKC,0.00,VWS V14.01,2013-08-28 05:45:00,
2013-08-27 22:50:00,68.0,56.7,29.80,South,182,0.0,4.0,67,0.00,,SKC,0.00,VWS V14.01,2013-08-28 05:50:00,
2013-08-27 22:56:00,68.2,56.4,29.80,South,182,0.0,4.0,66,0.00,,SKC,0.00,VWS V14.01,2013-08-28 05:56:00,
2013-08-27 23:05:00,68.3,56.5,29.80,SSE,165,0.0,4.0,66,0.00,,SKC,0.00,VWS V14.01,2013-08-28 06:05:00,
2013-08-27 23:11:00,68.3,56.5,29.80,SSE,165,1.0,2.0,66,0.00,,SKC,0.00,VWS V14.01,2013-08-28 06:11:00,
2013-08-27 23:21:00,68.1,56.3,29.80,SSE,165,0.0,0.0,66,0.00,,SKC,0.00,VWS V14.01,2013-08-28 06:21:00,
2013-08-27 23:31:00,68.0,56.2,29.81,SSE,167,0.0,0.0,66,0.00,,SKC,0.00,VWS V14.01,2013-08-28 06:31:00,
2013-08-27 23:36:00,68.0,56.2,29.80,SSE,167,0.0,0.0,66,0.00,,SKC,0.00,VWS V14.01,2013-08-28 06:36:00,
2013-08-27 23:41:00,67.8,56.0,29.81,SSE,168,0.0,0.0,66,0.00,,SKC,0.00,VWS V14.01,2013-08-28 06:41:00,
2013-08-27 23:50:00,67.6,56.3,29.81,SSE,168,0.0,4.0,67,0.00,,SKC,0.00,VWS V14.01,2013-08-28 06:50:00,
2013-08-27 23:56:00,67.7,56.4,29.81,SSE,168,0.0,3.0,67,0.00,,SKC,0.00,VWS V14.01,2013-08-28 06:56:00,